Location: B
(0.0000°N, 0.0000°E)
Time: 17:52:10
(UTC+02:00)

Daily predictions for brighter satellites

Satellite Brightness Start Highest point End
(mag) Time Altitude Azimuth Time Altitude Azimuth Time Altitude Azimuth
CSL-04 Rocket 4.0 20:13:03 10° S 20:18:24 74° WSW 20:23:47 10° NNW
Cosmos 2074 Rocket 4.3 20:16:04 10° S 20:22:22 79° W 20:28:39 10° N
Cosmos 1610 Rocket 4.4 20:24:35 10° S 20:30:43 74° E 20:36:48 10° N
Cosmos 1500 Rocket 3.5 20:26:20 10° N 20:30:44 79° E 20:35:06 10° S
Cosmos 1340 3.1 20:27:56 10° SSW 20:31:42 66° W 20:35:27 10° N
Ariane Rocket 3.6 20:30:32 10° S 20:35:28 61° WSW 20:40:23 10° NNW
Cosmos 2181 Rocket 4.2 20:30:43 10° N 20:37:07 84° W 20:43:27 10° S
Atlas 2A Centaur Rocket 1.9 20:37:11 10° SW 20:39:36 58° SE 20:46:46 10° ENE
ARIANE 5 R/B 4.5 20:34:23 10° W 20:40:03 42° S 20:42:47 14° ESE
NOAA 12 4.1 20:37:15 10° SSE 20:42:31 65° ENE 20:47:42 10° N
Cosmos 1624 Rocket 4.3 20:38:52 10° S 20:43:46 41° ESE 20:48:37 10° NNE
ARIANE 5 R/B 3.3 20:40:39 10° W 20:44:17 86° S 20:59:59 15° E
ARIANE 5 R/B 2.9 20:33:31 10° W 20:45:15 87° S 20:47:27 18° E
Sich 1 4.4 20:42:33 10° NE 20:45:22 17° E 20:46:08 17° E
SEDSat Delta rocket 3.5 20:44:15 10° SSW 20:47:59 35° SE 20:50:23 19° E
SL-16 R/B 2.4 20:45:01 10° S 20:50:26 46° ESE 20:55:49 10° NNE
NOSS 3-1 (A) 4.4 20:42:31 10° NNW 20:51:07 84° WSW 20:59:43 10° SSE
Meteor 2-2 Rocket 4.5 20:45:33 10° S 20:51:17 77° W 20:57:07 10° N
FENGYUN 3A 4.1 20:46:12 10° S 20:51:33 64° WSW 20:56:50 10° NNW
BLOCK DM-SL R/B 4.1 12:18:46 10° W 20:54:13 78° N 20:58:11 18° E
Cosmos 1269 Rocket 4.4 20:51:01 10° NNW 20:56:15 66° WSW 21:01:31 10° S
Ariane H10+ 3.5 20:53:39 10° WNW 20:57:17 59° N 21:04:12 17° E
H-2A R/B 2.6 20:53:47 10° SSE 20:57:27 63° ENE 21:01:06 10° N
Ariane H10 3.2 20:54:40 10° WNW 20:57:28 65° N 21:01:17 20° E
Cosmos 1515 Rocket 3.6 21:01:42 10° S 21:06:03 54° E 21:10:24 10° NNE
CZ-4C R/B 1.9 21:01:51 10° S 21:06:32 49° ESE 21:11:14 10° NE
SPOT 3 Rocket 3.5 21:02:43 10° SSE 21:07:54 70° ENE 21:13:01 10° N
USA 267 3.9 21:07:00 23° E 21:09:45 31° SE 21:15:22 10° S
ARIANE 5 DEB (SYLDA) 2.9 21:09:46 10° WSW 21:13:55 30° S 21:14:12 30° S
Cosmos 1633 Rocket 4.1 21:10:10 10° NNE 21:12:53 27° ENE 21:12:53 27° ENE
Ariane H10-3 1.8 21:13:08 10° W 21:15:12 36° SSW 21:15:12 36° SSW
Nadezhda 3 Rocket 4.2 21:12:53 10° NNE 21:19:00 50° E 21:23:10 20° SSE
Cosmos 1328 Rocket 4.3 21:15:58 10° SSW 21:20:14 53° W 21:24:31 10° N
ARIANE 5 R/B 2.9 21:20:34 10° WNW 21:22:07 29° NW 21:22:07 29° NW
Meteor 2-15 4.3 21:16:44 10° N 21:22:46 68° E 21:28:29 11° SSE
ATLAS 3B CENTAUR R/B 3.7 21:12:02 10° NW 21:25:25 38° NNE 21:28:35 26° ENE
Thor Agena Rocket 3.9 21:20:12 10° N 21:25:26 66° WNW 21:30:41 10° SSW
Delta 198 3.7 21:21:58 10° SW 21:26:15 55° SSE 21:26:34 53° SE
Cosmos 2344 3.7 21:17:08 10° SSW 21:26:28 89° WNW 21:34:08 10° NNE
Cosmos 2228 Rocket 3.4 21:26:11 10° SSW 21:30:33 65° W 21:34:54 10° N
BLOCK DM-SL R/B 4.4 21:02:28 10° W 21:35:12 89° N 21:38:08 41° E
Cosmos 1959 Rocket 4.3 21:29:31 10° S 21:35:44 70° E 21:41:50 10° N
Cosmos 1844 Rocket 2.5 21:36:23 10° N 21:42:00 75° ENE 21:42:33 68° ESE
ARIANE 5 R/B 3.4 21:43:01 10° W 21:43:50 23° W 21:43:50 23° W
Meteor 2-3 Rocket 4.0 21:40:36 10° N 21:45:05 50° NE 21:45:05 50° NE
Envisat 3.2 21:51:42 61° N 21:51:42 61° N 21:55:52 10° N
Maqsat 3 4.2 21:47:50 10° WSW 21:53:07 60° S 21:53:26 59° SSE
Cosmos 1844 3.9 21:55:29 10° NNW 22:00:15 63° N 22:00:15 63° N
Cosmos 2218 Rocket 4.4 21:56:23 10° SSW 22:02:35 62° W 22:08:50 10° N
Cosmos 2366 rocket 4.4 22:02:39 10° SSW 22:08:43 61° W 22:14:49 10° N
Spelda 30 4.2 22:06:40 10° W 22:08:59 53° W 22:08:59 53° W
ARIANE 5 DEB (SYLDA) 4.4 22:05:15 10° W 22:13:11 53° WSW 22:13:11 53° WSW
Meteor 2-10 Rocket 4.5 22:13:17 42° WSW 22:14:32 49° W 22:20:01 10° N
ATLAS 2AS CENTAUR R/B 4.1 22:10:03 10° N 22:13:21 26° NNE 22:13:21 26° NNE
Ariane H10+ 3.9 22:15:15 10° W 22:16:05 20° W 22:16:05 20° W
ARIANE 5 R/B 3.9 22:30:29 10° W 22:54:48 53° WSW 22:54:48 53° WSW
